Zurück zum Katalog

SL-3 R/B

AktivPO
NORAD 8520·ROCKET BODY·🇷🇺 Russia

Gestartet Dec 25, 1975 von Plesetsk Cosmodrome

Loading…

Nächste Überflüge (nächste 24 Stunden)

TLE

AktuellSource: Space-Track

Epoche: Sep 14, 2026, 15:36 UTC

1 08520U 75124B   26257.65011264  .00000204  00000-0  10900-3 0  9990
2 08520  81.2894 143.0824 0032804 152.9205 207.3686 14.09452805606408

Verfolge SL-3 R/B in Echtzeit mit AllMySat

Download on the App Store